Weather History for Cork Airport, Ireland

Change the Weather History Date:

Tuesday, March 12, 2013

  Actual Average Record
Temperature  
Mean Temperature 32 °F -  
Max Temperature 40 °F 51 °F - ()
Min Temperature 24 °F 39 °F - ()
Degree Days  
Heating Degree Days 33    
Moisture  
Dew Point 24 °F    
Average Humidity 70    
Maximum Humidity 93    
Minimum Humidity 38    
Precipitation  
Precipitation 0.00 in 0.11 in - ()
Sea Level Pressure  
Sea Level Pressure 30.04 in    
Wind  
Wind Speed 13 mph ()    
Max Wind Speed 21 mph    
Max Gust Speed -    
Visibility 6.6 miles    
Events      
T = Trace of Precipitation, MM = Missing Value Source: Averaged Metar Reports

Daily Weather History Graph

Daily Weather History Graph

Search for Another Location

Airport:

Trip Planner

Search our weather history database for the weather conditions in past years. The results will help you decide how hot, cold, wet, or windy it might be!

Date:

Astronomy

Mar. 12, 2013 Rise Set
Actual Time 6:54 AM GMT 6:33 PM GMT
Civil Twilight 6:21 AM GMT 7:06 PM GMT
Nautical Twilight 5:42 AM GMT 7:46 PM GMT
Astronomical Twilight 5:02 AM GMT 8:26 PM GMT
Moon 6:44 AM GMT (3/12) 7:47 PM GMT (3/12)
Length of Visible Light 12h 45m
Length of Day
11h 38m
New Moon, 1% of the Moon is Illuminated
Mar 12
New Moon
Mar 19
First Quarter
Mar 27
Full
Apr 3
Last Quarter
Apr 10
New

Hourly Weather History & Observations

Time (GMT) Temp. Windchill Dew Point Humidity Pressure Visibility Wind Dir Wind Speed Gust Speed Precip Events Conditions
12:00 AM 28 °F - 23 °F 75% 30.06 in 16 mi North 15.7 mph - -   Partly Cloudy
12:00 AM 28.4 °F 17.0 °F 23.0 °F 80% 30.01 in 6.2 mi North 15.0 mph - N/A   Partly Cloudy
12:30 AM 26.6 °F 14.7 °F 23.0 °F 86% 30.01 in 6.2 mi North 15.0 mph - N/A   Partly Cloudy
1:00 AM 26.6 °F 14.3 °F 23.0 °F 86% 30.01 in 6.2 mi North 16.1 mph - N/A   Scattered Clouds
1:30 AM 26.6 °F 14.7 °F 23.0 °F 86% 30.01 in 6.2 mi North 15.0 mph - N/A   Scattered Clouds
2:00 AM 26.6 °F 15.7 °F 23.0 °F 86% 30.01 in 6.2 mi North 12.7 mph - N/A   Mostly Cloudy
2:30 AM 26.6 °F 15.7 °F 23.0 °F 86% 30.01 in 6.2 mi North 12.7 mph - N/A   Mostly Cloudy
3:00 AM 26.6 °F 15.7 °F 23.0 °F 86% 30.01 in 6.2 mi North 12.7 mph - N/A   Partly Cloudy
3:30 AM 26.6 °F 16.2 °F 23.0 °F 86% 30.01 in 6.2 mi North 11.5 mph - N/A   Partly Cloudy
4:00 AM 26.6 °F 16.2 °F 21.2 °F 80% 30.01 in 6.2 mi North 11.5 mph - N/A   Partly Cloudy
4:30 AM 26.6 °F 16.8 °F 21.2 °F 80% 30.01 in 6.2 mi North 10.4 mph - N/A   Partly Cloudy
5:00 AM 26.6 °F 15.2 °F 21.2 °F 80% 30.04 in 6.2 mi North 13.8 mph - N/A   Partly Cloudy
5:30 AM 26.6 °F 14.7 °F 21.2 °F 80% 30.04 in 6.2 mi North 15.0 mph - N/A   Partly Cloudy
6:00 AM 26 °F - 21 °F 76% 30.08 in 16 mi North 13.4 mph - -   Scattered Clouds
6:00 AM 26.6 °F 15.2 °F 21.2 °F 80% 30.04 in 6.2 mi North 13.8 mph - N/A   Partly Cloudy
6:30 AM 24.8 °F 12.4 °F 21.2 °F 86% 30.04 in 6.2 mi North 15.0 mph - N/A   Partly Cloudy
7:00 AM 24.8 °F 13.4 °F 21.2 °F 86% 30.04 in 6.2 mi North 12.7 mph - N/A   Partly Cloudy
7:30 AM 26.6 °F 16.2 °F 21.2 °F 80% 30.06 in 6.2 mi North 11.5 mph - N/A   Partly Cloudy
8:00 AM 26.6 °F 16.2 °F 21.2 °F 80% 30.06 in 6.2 mi North 11.5 mph - N/A   Partly Cloudy
8:30 AM 28.4 °F 17.5 °F 21.2 °F 74% 30.06 in 6.2 mi North 13.8 mph - N/A   Partly Cloudy
9:00 AM 30.2 °F 18.9 °F 21.2 °F 69% 30.06 in 6.2 mi North 16.1 mph - N/A   Partly Cloudy
9:30 AM 30.2 °F 18.9 °F 23.0 °F 75% 30.06 in 6.2 mi North 16.1 mph - N/A   Partly Cloudy
10:30 AM 33.8 °F 22.5 °F 21.2 °F 60% 30.06 in 6.2 mi NNE 19.6 mph - N/A   Partly Cloudy
11:00 AM 35.6 °F 24.5 °F 21.2 °F 56% 30.06 in 6.2 mi NNE 20.7 mph - N/A   Partly Cloudy
11:30 AM 35.6 °F 24.5 °F 19.4 °F 52% 30.06 in 6.2 mi NNE 20.7 mph - N/A   Partly Cloudy
12:00 PM 37 °F - 21 °F 38% 30.09 in 31 mi NNE 20.1 mph - -   Scattered Clouds
12:00 PM 37.4 °F 26.9 °F 21.2 °F 52% 30.06 in 6.2 mi NNE 20.7 mph - N/A   Partly Cloudy
12:30 PM 37.4 °F 27.5 °F 21.2 °F 52% 30.06 in 6.2 mi NNE 18.4 mph - N/A   Partly Cloudy
1:00 PM 37.4 °F 27.5 °F 17.6 °F 45% 30.06 in 6.2 mi NNE 18.4 mph - N/A   Partly Cloudy
1:30 PM 39.2 °F 29.8 °F 21.2 °F 49% 30.04 in 6.2 mi North 18.4 mph - N/A   Partly Cloudy
2:00 PM 39.2 °F 30.2 °F 21.2 °F 49% 30.04 in 6.2 mi NNE 17.3 mph - N/A   Partly Cloudy
2:30 PM 39.2 °F 30.5 °F 21.2 °F 49% 30.04 in 6.2 mi North 16.1 mph - N/A   Scattered Clouds
3:00 PM 39.2 °F 30.2 °F 23.0 °F 52% 30.04 in 6.2 mi North 17.3 mph - N/A   Scattered Clouds
3:30 PM 39.2 °F 30.5 °F 23.0 °F 52% 30.04 in 6.2 mi North 16.1 mph - N/A   Mostly Cloudy
4:00 PM 39.2 °F 30.5 °F 24.8 °F 56% 30.04 in 6.2 mi North 16.1 mph - N/A   Scattered Clouds
4:30 PM 39.2 °F 31.2 °F 24.8 °F 56% 30.04 in 6.2 mi North 13.8 mph - N/A   Mostly Cloudy
5:00 PM 37.4 °F 29.3 °F 26.6 °F 65% 30.04 in 6.2 mi North 12.7 mph - N/A   Mostly Cloudy
5:30 PM 37.4 °F 28.9 °F 26.6 °F 65% 30.04 in 6.2 mi NNW 13.8 mph - N/A   Mostly Cloudy
6:00 PM 38 °F - 27 °F 54% 30.06 in 25 mi NNW 11.2 mph - -   Mostly Cloudy
6:00 PM 37.4 °F 29.8 °F 26.6 °F 65% 30.04 in 6.2 mi NNW 11.5 mph - N/A   Mostly Cloudy
6:30 PM 37.4 °F 30.3 °F 26.6 °F 65% 30.04 in 6.2 mi NNW 10.4 mph - N/A   Mostly Cloudy
7:00 PM 37.4 °F 30.3 °F 26.6 °F 65% 30.04 in 6.2 mi NW 10.4 mph - N/A   Mostly Cloudy
7:30 PM 37.4 °F 30.8 °F 26.6 °F 65% 30.04 in 6.2 mi NW 9.2 mph - N/A   Partly Cloudy
8:00 PM 37.4 °F 31.4 °F 28.4 °F 70% 30.04 in 6.2 mi NW 8.1 mph - N/A   Mostly Cloudy
8:30 PM 37.4 °F 29.8 °F 30.2 °F 75% 30.04 in 6.2 mi NW 11.5 mph - N/A   Mostly Cloudy
9:00 PM 37.4 °F 28.9 °F 32.0 °F 81% 30.04 in 6.2 mi NW 13.8 mph - N/A   Mostly Cloudy
9:30 PM 37.4 °F 29.3 °F 32.0 °F 81% 30.04 in 6.2 mi NW 12.7 mph - N/A   Mostly Cloudy
10:00 PM 37.4 °F 29.8 °F 32.0 °F 81% 30.04 in 6.2 mi WNW 11.5 mph - N/A   Mostly Cloudy
10:30 PM 37.4 °F 30.3 °F 32.0 °F 81% 30.01 in 6.2 mi WNW 10.4 mph - N/A   Scattered Clouds
11:00 PM 35.6 °F 27.5 °F 32.0 °F 87% 30.04 in 6.2 mi NW 11.5 mph - N/A   Scattered Clouds
11:30 PM 35.6 °F 28.6 °F 33.8 °F 93% 30.01 in 6.2 mi NW 9.2 mph - N/A   Scattered Clouds